EN

Hourly Weather Ladyzhino

Today, 26 July, Monday

Time Temperature Precipitation Wind Pressure Humidity
00:00 +18°C° 0 mm 2 mps 748 mmHg 59%
01:00 +18°C° 0 mm 2 mps 748 mmHg 59%
02:00 +18°C° 0 mm 1 mps 748 mmHg 61%
03:00 +19°C° 0 mm 1 mps 748 mmHg 62%
04:00 +19°C° 0 mm 1 mps 748 mmHg 62%
05:00 +19°C° 0 mm 1 mps 749 mmHg 63%
06:00 +21°C° 0 mm 1 mps 749 mmHg 60%
07:00 +22°C° 0 mm 1 mps 749 mmHg 58%
08:00 +23°C° 0 mm 1 mps 749 mmHg 56%
09:00 +24°C° 0 mm 1 mps 749 mmHg 54%
10:00 +25°C° 0 mm 1 mps 749 mmHg 52%
11:00 +26°C° 0 mm 1 mps 749 mmHg 50%
12:00 +26°C° 0 mm 1 mps 749 mmHg 48%
13:00 +27°C° 0 mm 1 mps 749 mmHg 45%
14:00 +29°C° 0 mm 1 mps 749 mmHg 42%
15:00 +28°C° 0 mm 1 mps 748 mmHg 46%
16:00 +27°C° 0 mm 1 mps 748 mmHg 49%
17:00 +27°C° 0 mm 1 mps 748 mmHg 52%
18:00 +25°C° 0 mm 2 mps 748 mmHg 58%
19:00 +23°C° 0 mm 2 mps 748 mmHg 65%
20:00 +20°C° 0 mm 2 mps 748 mmHg 71%
21:00 +20°C° 0 mm 2 mps 748 mmHg 71%
22:00 +20°C° 0 mm 2 mps 748 mmHg 71%
23:00 +19°C° 0 mm 2 mps 748 mmHg 71%

Tomorrow, 27 July, Tuesday

Time Temperature Precipitation Wind Pressure Humidity
00:00 +19°C° 0 mm 2 mps 748 mmHg 72%
01:00 +20°C° 0 mm 1 mps 748 mmHg 72%
02:00 +19°C° 0 mm 1 mps 748 mmHg 73%
03:00 +19°C° 0 mm 1 mps 748 mmHg 73%
04:00 +19°C° 0 mm 1 mps 748 mmHg 73%
05:00 +20°C° 0 mm 1 mps 748 mmHg 73%
06:00 +21°C° 0 mm 1 mps 748 mmHg 68%
07:00 +23°C° 0 mm 1 mps 748 mmHg 62%
08:00 +25°C° 0 mm 1 mps 748 mmHg 57%
09:00 +26°C° 0 mm 1 mps 748 mmHg 52%
10:00 +28°C° 0 mm 1 mps 748 mmHg 47%
11:00 +29°C° 0 mm 2 mps 748 mmHg 42%
12:00 +30°C° 0 mm 2 mps 748 mmHg 40%
13:00 +30°C° 0 mm 2 mps 747 mmHg 38%
14:00 +30°C° 0 mm 2 mps 747 mmHg 37%
15:00 +30°C° 0 mm 2 mps 747 mmHg 39%
16:00 +30°C° 0 mm 1 mps 746 mmHg 41%
17:00 +30°C° 0 mm 1 mps 746 mmHg 44%
18:00 +28°C° 0 mm 1 mps 746 mmHg 47%
19:00 +26°C° 0 mm 1 mps 746 mmHg 50%
20:00 +24°C° 0 mm 2 mps 746 mmHg 53%
21:00 +23°C° 0 mm 2 mps 746 mmHg 54%
22:00 +23°C° 0 mm 2 mps 746 mmHg 56%
23:00 +21°C° 0 mm 3 mps 746 mmHg 57%

Day after tomorrow, 28 July, Wednesday

Time Temperature Precipitation Wind Pressure Humidity
00:00 +21°C° 0 mm 3 mps 745 mmHg 57%
01:00 +20°C° 0 mm 3 mps 745 mmHg 57%
02:00 +20°C° 0 mm 3 mps 745 mmHg 58%
03:00 +20°C° 0 mm 3 mps 745 mmHg 56%
04:00 +21°C° 0 mm 3 mps 744 mmHg 55%
05:00 +21°C° 0 mm 3 mps 744 mmHg 54%
06:00 +21°C° 0 mm 2 mps 744 mmHg 57%
07:00 +21°C° 0 mm 2 mps 744 mmHg 59%
08:00 +21°C° 0 mm 2 mps 744 mmHg 62%
09:00 +21°C° 0.1 mm 2 mps 744 mmHg 63%
10:00 +21°C° 0.1 mm 3 mps 744 mmHg 64%
11:00 +21°C° 0.1 mm 3 mps 743 mmHg 65%
12:00 +22°C° 0.1 mm 4 mps 743 mmHg 65%
13:00 +23°C° 0.1 mm 4 mps 743 mmHg 65%
14:00 +23°C° 0.1 mm 5 mps 742 mmHg 65%
15:00 +25°C° 0.6 mm 5 mps 742 mmHg 67%
16:00 +25°C° 0.6 mm 4 mps 741 mmHg 69%
17:00 +25°C° 0.6 mm 4 mps 741 mmHg 71%
18:00 +22°C° 1.6 mm 4 mps 741 mmHg 77%
19:00 +21°C° 1.6 mm 5 mps 741 mmHg 84%
20:00 +20°C° 1.6 mm 5 mps 741 mmHg 90%
21:00 +19°C° 0 mm 4 mps 740 mmHg 91%
22:00 +19°C° 0 mm 4 mps 740 mmHg 92%
23:00 +19°C° 0 mm 3 mps 740 mmHg 93%

29 July, Thursday

Time Temperature Precipitation Wind Pressure Humidity
00:00 +19°C° 0 mm 3 mps 740 mmHg 94%
01:00 +19°C° 0 mm 3 mps 740 mmHg 94%
02:00 +18°C° 0 mm 3 mps 740 mmHg 94%
03:00 +19°C° 0 mm 3 mps 740 mmHg 94%
04:00 +19°C° 0 mm 2 mps 740 mmHg 94%
05:00 +19°C° 0 mm 2 mps 739 mmHg 94%
06:00 +21°C° 0 mm 2 mps 739 mmHg 87%
07:00 +24°C° 0 mm 2 mps 740 mmHg 80%
08:00 +25°C° 0 mm 2 mps 740 mmHg 73%
09:00 +27°C° 0 mm 2 mps 740 mmHg 66%
10:00 +28°C° 0 mm 2 mps 740 mmHg 59%
11:00 +30°C° 0 mm 3 mps 740 mmHg 52%
12:00 +30°C° 0 mm 3 mps 739 mmHg 50%
13:00 +31°C° 0 mm 3 mps 739 mmHg 47%
14:00 +31°C° 0 mm 3 mps 739 mmHg 45%
15:00 +30°C° 0.1 mm 3 mps 739 mmHg 50%
16:00 +29°C° 0.1 mm 3 mps 738 mmHg 54%
17:00 +28°C° 0.1 mm 4 mps 738 mmHg 59%
18:00 +26°C° 0.4 mm 3 mps 738 mmHg 68%
19:00 +24°C° 0.4 mm 2 mps 738 mmHg 76%
20:00 +22°C° 0.4 mm 1 mps 738 mmHg 85%
21:00 +22°C° 0.5 mm 1 mps 738 mmHg 87%
22:00 +21°C° 0.5 mm 1 mps 738 mmHg 89%
23:00 +21°C° 0.5 mm 1 mps 738 mmHg 91%

30 July, Friday

Time Temperature Precipitation Wind Pressure Humidity
00:00 +21°C° 0 mm 1 mps 738 mmHg 92%
01:00 +19°C° 0 mm 2 mps 738 mmHg 93%
02:00 +19°C° 0 mm 2 mps 738 mmHg 94%
03:00 +19°C° 0 mm 2 mps 738 mmHg 94%
04:00 +19°C° 0 mm 2 mps 738 mmHg 94%
05:00 +19°C° 0 mm 2 mps 738 mmHg 95%
06:00 +20°C° 0 mm 2 mps 739 mmHg 88%
07:00 +21°C° 0 mm 2 mps 739 mmHg 82%
08:00 +24°C° 0 mm 3 mps 739 mmHg 75%
09:00 +25°C° 0 mm 3 mps 739 mmHg 69%
10:00 +26°C° 0 mm 3 mps 739 mmHg 63%
11:00 +28°C° 0 mm 3 mps 739 mmHg 57%
12:00 +28°C° 0 mm 3 mps 739 mmHg 56%
13:00 +28°C° 0 mm 3 mps 739 mmHg 55%
14:00 +28°C° 0 mm 3 mps 739 mmHg 54%
15:00 +28°C° 0 mm 3 mps 739 mmHg 57%
16:00 +27°C° 0 mm 3 mps 739 mmHg 59%
17:00 +27°C° 0 mm 3 mps 739 mmHg 62%
18:00 +25°C° 0 mm 3 mps 739 mmHg 64%
19:00 +24°C° 0 mm 2 mps 739 mmHg 66%
20:00 +21°C° 0 mm 2 mps 739 mmHg 68%
21:00 +21°C° 0 mm 2 mps 739 mmHg 67%
22:00 +20°C° 0 mm 2 mps 739 mmHg 67%
23:00 +20°C° 0 mm 2 mps 739 mmHg 66%

31 July, Saturday

Time Temperature Precipitation Wind Pressure Humidity
00:00 +19°C° 0 mm 2 mps 739 mmHg 67%
01:00 +19°C° 0 mm 2 mps 739 mmHg 68%
02:00 +19°C° 0 mm 2 mps 739 mmHg 68%
03:00 +19°C° 0 mm 2 mps 739 mmHg 69%
04:00 +19°C° 0 mm 2 mps 739 mmHg 70%
05:00 +19°C° 0 mm 3 mps 739 mmHg 70%
06:00 +21°C° 0 mm 3 mps 739 mmHg 65%
07:00 +24°C° 0 mm 3 mps 739 mmHg 60%
08:00 +26°C° 0 mm 4 mps 739 mmHg 56%
09:00 +27°C° 0 mm 4 mps 739 mmHg 52%
10:00 +28°C° 0 mm 4 mps 739 mmHg 48%
11:00 +30°C° 0 mm 5 mps 739 mmHg 44%
12:00 +30°C° 0 mm 5 mps 739 mmHg 43%
13:00 +30°C° 0 mm 5 mps 739 mmHg 42%
14:00 +32°C° 0 mm 5 mps 739 mmHg 41%
15:00 +30°C° 0 mm 4 mps 739 mmHg 44%
16:00 +30°C° 0 mm 3 mps 739 mmHg 46%
17:00 +30°C° 0 mm 2 mps 739 mmHg 48%
18:00 +28°C° 0 mm 2 mps 738 mmHg 52%
19:00 +27°C° 0 mm 2 mps 738 mmHg 55%
20:00 +25°C° 0 mm 3 mps 738 mmHg 58%
21:00 +24°C° 0 mm 3 mps 738 mmHg 58%
22:00 +24°C° 0 mm 3 mps 737 mmHg 59%
23:00 +22°C° 0 mm 3 mps 737 mmHg 59%
Show more